EW5295 Weather Reports


time (UTC)temp
C
wind
direction
speed
KPH
gust
KPH
rain 1hr
cm
rain 24hr
cm
rain mn
cm
humidity
%
barometer
mb
20260903211538 12 143 0.0 1.6 0.15 0.43 0.43 95 1009.4
20260903210031 11 152 0.0 3.2 0.15 0.43 0.43 93 1009.3
20260903204531 12 127 0.0 1.6 0.13 0.41 0.41 92 1009.2
20260903203039 12 148 0.0 3.2 0.10 0.38 0.38 89 1009.3
20260903201529 14 103 0.0 6.4 0.00 0.36 0.28 85 1009.0
20260903200031 15 148 0.0 4.8 0.00 0.36 0.28 81 1009.0
20260903194542 15 185 0.0 8.0 0.00 0.36 0.28 81 1008.8
20260903193024 15 153 0.0 8.0 0.00 0.36 0.28 84 1008.8
20260903191524 14 169 0.0 6.4 0.00 0.51 0.28 85 1008.9
20260903190011 14 212 0.0 8.0 0.00 0.51 0.28 87 1009.0
20260903184516 13 181 0.0 4.8 0.00 0.51 0.28 89 1009.2
20260903183009 13 152 0.0 3.2 0.00 0.51 0.28 90 1009.2
20260903181521 13 221 0.0 4.8 0.00 0.61 0.28 91 1009.0
20260903180007 13 174 0.0 3.2 0.00 0.61 0.28 93 1009.0
20260903174507 13 176 0.0 4.8 0.00 0.61 0.28 94 1009.0
20260903173006 13 255 0.0 3.2 0.00 0.61 0.28 94 1008.9
20260903171552 13 310 0.0 6.4 0.00 0.64 0.28 96 1008.9
20260903170056 12 169 0.0 1.6 0.13 0.64 0.28 96 1009.1
20260903164538 12 141 0.0 1.6 0.18 0.64 0.28 97 1009.2
20260903163045 11 155 0.0 0.0 0.18 0.64 0.28 97 1009.2
20260903161536 11 153 0.0 0.0 0.18 0.64 0.28 96 1009.3
20260903160034 11 150 0.0 1.6 0.05 0.51 0.15 97 1009.3
20260903154532 11 140 0.0 3.2 0.00 0.46 0.10 97 1009.3
20260903153029 -17 0.0 0.0 0.00 0.46 0.10 1009.1
20260903151526 -17 0.0 0.0 0.00 0.46 0.10 1009.1
20260903150024 -17 0.0 0.0 0.00 0.46 0.10 1008.9
20260903144602 -17 0.0 0.0 0.00 0.46 0.10 1008.8
20260903143101 -17 0.0 0.0 0.00 0.46 0.10 1008.6
20260903141547 -17 0.0 0.0 0.00 0.46 0.10 1008.5
20260903140047 -17 0.0 0.0 0.00 0.46 0.10 1008.4
20260903134541 -17 0.0 0.0 0.00 0.46 0.10 1008.5
20260903133038 -17 0.0 0.0 0.00 0.46 0.10 1008.3
20260903131534 -17 0.0 0.0 0.00 0.46 0.10 1008.3
20260903130029 -17 0.0 0.0 0.00 0.46 0.10 1008.3
20260903124526 -17 0.0 0.0 0.00 0.46 0.10 1008.4
20260903123028 -17 0.0 0.0 0.00 0.46 0.10 1008.5
20260903121519 11 173 0.0 3.2 0.00 0.46 0.10 95 1008.4
20260903120008 11 160 0.0 1.6 0.00 0.46 0.10 95 1008.5
20260903114506 11 171 0.0 0.0 0.00 0.46 0.10 95 1008.4
20260903113005 11 151 0.0 1.6 0.00 0.46 0.10 95 1008.5
20260903111503 11 168 0.0 1.6 0.00 0.46 0.10 95 1008.5
20260903110003 11 168 0.0 1.6 0.00 0.46 0.10 95 1008.5
20260903104503 11 192 0.0 4.8 0.00 0.46 0.10 96 1008.5
20260903103002 11 146 0.0 1.6 0.00 0.46 0.10 96 1008.6
20260903101501 11 162 0.0 6.4 0.00 0.46 0.10 96 1008.5
20260903100045 11 166 0.0 3.2 0.00 0.46 0.10 96 1008.4
20260903094549 11 155 0.0 1.6 0.00 0.46 0.10 96 1008.4
20260903093049 11 122 0.0 3.2 0.00 0.46 0.10 96 1008.4
20260903091524 11 203 0.0 3.2 0.00 0.46 0.10 96 1008.4
20260903090009 11 165 0.0 1.6 0.00 0.46 0.10 96 1008.6
20260903084505 11 153 0.0 1.6 0.00 0.46 0.10 96 1008.6
20260903083051 11 155 0.0 4.8 0.00 0.46 0.10 96 1008.7
20260903081547 11 176 0.0 1.6 0.00 0.46 0.10 96 1008.7
20260903080029 11 194 0.0 3.2 0.00 0.46 0.10 96 1008.7
20260903074528 11 169 0.0 3.2 0.00 0.46 0.10 96 1008.8
20260903073010 11 148 0.0 3.2 0.00 0.46 0.10 96 1008.8
20260903071509 11 155 0.0 3.2 0.00 0.46 0.10 96 1008.7
20260903064604 12 158 0.0 3.2 0.00 0.46 0.10 96 1008.6
20260903063102 12 123 0.0 1.6 0.00 0.46 0.10 96 1008.6
20260903061553 12 154 0.0 3.2 0.00 0.46 0.10 96 1008.7
20260903060053 12 167 0.0 4.8 0.00 0.46 0.10 96 1008.8
20260903054553 12 134 0.0 4.8 0.00 0.46 0.10 96 1008.8
20260903053051 12 164 0.0 1.6 0.00 0.46 0.10 96 1008.8
20260903051550 12 160 0.0 1.6 0.00 0.46 0.10 96 1008.7
20260903050042 12 160 0.0 1.6 0.00 0.46 0.10 96 1008.7
20260903044546 12 165 0.0 1.6 0.00 0.46 0.10 96 1008.7
20260903043034 12 160 0.0 0.0 0.00 0.46 0.10 96 1008.4
20260903041533 12 155 0.0 0.0 0.00 0.46 0.10 96 1008.3
20260903040036 12 158 0.0 0.0 0.00 0.46 0.10 96 1008.2
20260903034530 12 158 0.0 0.0 0.00 0.46 0.10 95 1007.9
20260903033027 12 158 0.0 0.0 0.00 0.46 0.10 95 1007.7
20260903031524 12 158 0.0 0.0 0.00 0.46 0.10 95 1007.6
20260903030005 13 158 0.0 0.0 0.00 0.46 0.10 94 1007.5
20260903024502 13 158 0.0 0.0 0.00 0.46 0.10 94 1007.3
20260903023046 13 146 0.0 1.6 0.00 0.46 0.10 94 1007.1
20260903021543 14 142 0.0 1.6 0.00 0.46 0.10 93 1007.0
20260903020034 14 172 0.0 3.2 0.00 0.46 0.10 93 1007.0
20260903014529 14 172 0.0 1.6 0.00 0.46 0.10 93 1006.7
20260903013028 14 157 0.0 3.2 0.00 0.46 0.10 92 1006.7
20260903011527 14 119 0.0 1.6 0.00 0.46 0.10 94 1006.5
20260903010023 14 155 0.0 3.2 0.00 0.46 0.10 95 1006.5
20260903004525 13 113 0.0 1.6 0.03 0.46 0.10 96 1006.4
20260903003021 13 131 0.0 1.6 0.03 0.46 0.10 95 1006.3
20260903001525 13 119 0.0 1.6 0.03 0.46 0.10 95 1006.3
20260903000016 13 91 0.0 1.6 0.03 0.46 0.10 96 1006.1
20260902234506 13 113 0.0 1.6 0.00 0.43 0.08 96 1006.1
20260902233008 13 148 0.0 1.6 0.05 0.43 0.08 96 1006.0
20260902231508 13 129 0.0 1.6 0.05 0.43 0.08 96 1006.1
20260902230001 13 140 0.0 1.6 0.05 0.43 0.08 96 1005.9
20260902224614 13 165 0.0 4.8 0.08 0.43 0.08 96 1005.6
20260902223112 13 198 1.6 6.4 0.03 0.38 0.03 95 1005.4
20260902221605 13 193 0.0 6.4 0.03 0.38 0.03 95 1005.3
20260902220037 13 135 0.0 4.8 0.03 0.38 0.03 95 1005.2
20260902214605 13 155 0.0 6.4 0.00 0.36 0.00 95 1005.1
20260902213022 13 162 0.0 9.7 0.00 0.36 0.00 95 1005.1